Year,Month,Day,Hour,Minute,Value (Times are PST for temperature in C)
2016,07,15,00,00,14.40
2016,07,15,00,01,14.30
2016,07,15,00,02,14.30
2016,07,15,00,03,14.20
2016,07,15,00,04,14.20
2016,07,15,00,05,14.10
2016,07,15,00,06,14.00
2016,07,15,00,07,14.00
2016,07,15,00,08,14.00
2016,07,15,00,09,13.90
2016,07,15,00,10,13.90
2016,07,15,00,11,14.00
2016,07,15,00,12,14.00
2016,07,15,00,13,14.00
2016,07,15,00,14,14.00
2016,07,15,00,15,14.10
2016,07,15,00,16,14.10
2016,07,15,00,17,14.10
2016,07,15,00,18,14.10
2016,07,15,00,19,14.10
2016,07,15,00,20,14.10
2016,07,15,00,21,14.10
2016,07,15,00,22,14.10
2016,07,15,00,23,14.20
2016,07,15,00,24,14.20
2016,07,15,00,25,14.20
2016,07,15,00,26,14.20
2016,07,15,00,27,14.20
2016,07,15,00,28,14.20
2016,07,15,00,29,14.20
2016,07,15,00,30,14.20
2016,07,15,00,31,14.20
2016,07,15,00,32,14.10
2016,07,15,00,33,14.10
2016,07,15,00,34,14.10
2016,07,15,00,35,14.10
2016,07,15,00,36,14.10
2016,07,15,00,37,14.10
2016,07,15,00,38,14.10
2016,07,15,00,39,14.10
2016,07,15,00,40,14.10
2016,07,15,00,41,14.10
2016,07,15,00,42,14.10
2016,07,15,00,43,14.10
2016,07,15,00,44,14.10
2016,07,15,00,45,14.10
2016,07,15,00,46,14.20
2016,07,15,00,47,14.20
2016,07,15,00,48,14.20
2016,07,15,00,49,14.20
2016,07,15,00,50,14.20
2016,07,15,00,51,14.20
2016,07,15,00,52,14.20
2016,07,15,00,53,14.20
2016,07,15,00,54,14.10
2016,07,15,00,55,14.10
2016,07,15,00,56,14.10
2016,07,15,00,57,14.20
2016,07,15,00,58,14.20
2016,07,15,00,59,14.20
2016,07,15,01,00,14.20
2016,07,15,01,01,14.20
2016,07,15,01,02,14.20
2016,07,15,01,03,14.10
2016,07,15,01,04,14.10
2016,07,15,01,05,14.10
2016,07,15,01,06,14.10
2016,07,15,01,07,14.00
2016,07,15,01,08,14.00
2016,07,15,01,09,13.90
2016,07,15,01,10,13.90
2016,07,15,01,11,13.80
2016,07,15,01,12,13.80
2016,07,15,01,13,13.80
2016,07,15,01,14,13.80
2016,07,15,01,15,13.80
2016,07,15,01,16,13.80
2016,07,15,01,17,14.00
2016,07,15,01,18,14.10
2016,07,15,01,19,14.20
2016,07,15,01,20,14.30
2016,07,15,01,21,14.50
2016,07,15,01,22,14.50
2016,07,15,01,23,14.60
2016,07,15,01,24,14.60
2016,07,15,01,25,14.60
2016,07,15,01,26,14.60
2016,07,15,01,27,14.60
2016,07,15,01,28,14.60
2016,07,15,01,29,14.60
2016,07,15,01,30,14.70
2016,07,15,01,31,14.70
2016,07,15,01,32,14.60
2016,07,15,01,33,14.60
2016,07,15,01,34,14.50
2016,07,15,01,35,14.50
2016,07,15,01,36,14.40
2016,07,15,01,37,14.40
2016,07,15,01,38,14.30
2016,07,15,01,39,14.30
2016,07,15,01,40,14.20
2016,07,15,01,41,14.20
2016,07,15,01,42,14.20
2016,07,15,01,43,14.20
2016,07,15,01,44,14.20
2016,07,15,01,45,14.20
2016,07,15,01,46,14.20
2016,07,15,01,47,14.20
2016,07,15,01,48,14.30
2016,07,15,01,49,14.50
2016,07,15,01,50,14.60
2016,07,15,01,51,14.80
2016,07,15,01,52,14.90
2016,07,15,01,53,15.00
2016,07,15,01,54,15.00
2016,07,15,01,55,15.00
2016,07,15,01,56,15.00
2016,07,15,01,57,15.00
2016,07,15,01,58,15.00
2016,07,15,01,59,15.00
2016,07,15,02,00,15.00
2016,07,15,02,01,14.90
2016,07,15,02,02,15.00
2016,07,15,02,03,15.10
2016,07,15,02,04,15.30
2016,07,15,02,05,15.40
2016,07,15,02,06,15.50
2016,07,15,02,07,15.50
2016,07,15,02,08,15.50
2016,07,15,02,09,15.40
2016,07,15,02,10,15.30
2016,07,15,02,11,15.20
2016,07,15,02,12,15.20
2016,07,15,02,13,15.10
2016,07,15,02,14,15.00
2016,07,15,02,15,15.00
2016,07,15,02,16,15.00
2016,07,15,02,17,14.90
2016,07,15,02,18,14.90
2016,07,15,02,19,14.90
2016,07,15,02,20,14.90
2016,07,15,02,21,14.90
2016,07,15,02,22,14.90
2016,07,15,02,23,14.90
2016,07,15,02,24,15.00
2016,07,15,02,25,15.10
2016,07,15,02,26,15.10
2016,07,15,02,27,15.10
2016,07,15,02,28,15.20
2016,07,15,02,29,15.20
2016,07,15,02,30,15.30
2016,07,15,02,31,15.30
2016,07,15,02,32,15.30
2016,07,15,02,33,15.40
2016,07,15,02,34,15.50
2016,07,15,02,35,15.60
2016,07,15,02,36,15.60
2016,07,15,02,37,15.60
2016,07,15,02,38,15.60
2016,07,15,02,39,15.60
2016,07,15,02,40,15.70
2016,07,15,02,41,15.70
2016,07,15,02,42,15.70
2016,07,15,02,43,15.70
2016,07,15,02,44,15.70
2016,07,15,02,45,15.60
2016,07,15,02,46,15.50
2016,07,15,02,47,15.40
2016,07,15,02,48,15.40
2016,07,15,02,49,15.30
2016,07,15,02,50,15.20
2016,07,15,02,51,15.10
2016,07,15,02,52,15.00
2016,07,15,02,53,15.00
2016,07,15,02,54,14.90
2016,07,15,02,55,14.80
2016,07,15,02,56,14.80
2016,07,15,02,57,14.80
2016,07,15,02,58,14.70
2016,07,15,02,59,14.70
2016,07,15,03,00,14.60
2016,07,15,03,01,14.60
2016,07,15,03,02,14.50
2016,07,15,03,03,14.60
2016,07,15,03,04,14.60
2016,07,15,03,05,14.70
2016,07,15,03,06,14.70
2016,07,15,03,07,14.70
2016,07,15,03,08,14.80
2016,07,15,03,09,14.80
2016,07,15,03,10,14.90
2016,07,15,03,11,14.90
2016,07,15,03,12,14.90
2016,07,15,03,13,14.90
2016,07,15,03,14,14.90
2016,07,15,03,15,15.00
2016,07,15,03,16,15.20
2016,07,15,03,17,15.30
2016,07,15,03,18,15.50
2016,07,15,03,19,15.60
2016,07,15,03,20,15.70
2016,07,15,03,21,15.80
2016,07,15,03,22,15.80
2016,07,15,03,23,15.90
2016,07,15,03,24,15.90
2016,07,15,03,25,15.90
2016,07,15,03,26,16.00
2016,07,15,03,27,16.00
2016,07,15,03,28,16.00
2016,07,15,03,29,16.10
2016,07,15,03,30,16.10
2016,07,15,03,31,16.00
2016,07,15,03,32,15.90
2016,07,15,03,33,15.90
2016,07,15,03,34,15.80
2016,07,15,03,35,15.80
2016,07,15,03,36,15.80
2016,07,15,03,37,15.80
2016,07,15,03,38,15.80
2016,07,15,03,39,15.80
2016,07,15,03,40,15.80
2016,07,15,03,41,15.80
2016,07,15,03,42,15.80
2016,07,15,03,43,15.80
2016,07,15,03,44,15.80
2016,07,15,03,45,15.70
2016,07,15,03,46,15.70
2016,07,15,03,47,15.60
2016,07,15,03,48,15.60
2016,07,15,03,49,15.60
2016,07,15,03,50,15.60
2016,07,15,03,51,15.70
2016,07,15,03,52,15.70
2016,07,15,03,53,15.70
2016,07,15,03,54,15.70
2016,07,15,03,55,15.70
2016,07,15,03,56,15.60
2016,07,15,03,57,15.60
2016,07,15,03,58,15.60
2016,07,15,03,59,15.70
2016,07,15,04,00,15.70
2016,07,15,04,01,15.80
2016,07,15,04,02,15.90
2016,07,15,04,03,15.90
2016,07,15,04,04,15.90
2016,07,15,04,05,15.90
2016,07,15,04,06,16.00
2016,07,15,04,07,16.00
2016,07,15,04,08,16.00
2016,07,15,04,09,16.00
2016,07,15,04,10,15.90
2016,07,15,04,11,15.90
2016,07,15,04,12,15.90
2016,07,15,04,13,15.90
2016,07,15,04,14,15.90
2016,07,15,04,15,15.90
2016,07,15,04,16,15.90
2016,07,15,04,17,15.90
2016,07,15,04,18,15.90
2016,07,15,04,19,15.90
2016,07,15,04,20,15.80
2016,07,15,04,21,15.80
2016,07,15,04,22,15.80
2016,07,15,04,23,15.70
2016,07,15,04,24,15.70
2016,07,15,04,25,15.70
2016,07,15,04,26,15.70
2016,07,15,04,27,15.70
2016,07,15,04,28,15.70
2016,07,15,04,29,15.70
2016,07,15,04,30,15.60
2016,07,15,04,31,15.60
2016,07,15,04,32,15.60
2016,07,15,04,33,15.60
2016,07,15,04,34,15.70
2016,07,15,04,35,15.70
2016,07,15,04,36,15.70
2016,07,15,04,37,15.70
2016,07,15,04,38,15.70
2016,07,15,04,39,15.80
2016,07,15,04,40,15.80
2016,07,15,04,41,15.80
2016,07,15,04,42,15.80
2016,07,15,04,43,15.80
2016,07,15,04,44,15.80
2016,07,15,04,45,15.70
2016,07,15,04,46,15.70
2016,07,15,04,47,15.70
2016,07,15,04,48,15.70
2016,07,15,04,49,15.70
2016,07,15,04,50,15.70
2016,07,15,04,51,15.70
2016,07,15,04,52,15.70
2016,07,15,04,53,15.70
2016,07,15,04,54,15.80
2016,07,15,04,55,15.80
2016,07,15,04,56,15.80
2016,07,15,04,57,15.90
2016,07,15,04,58,15.90
2016,07,15,04,59,15.90
2016,07,15,05,00,15.90
2016,07,15,05,01,15.90
2016,07,15,05,02,15.90
2016,07,15,05,03,15.90
2016,07,15,05,04,16.00
2016,07,15,05,05,16.00
2016,07,15,05,06,16.10
2016,07,15,05,07,16.10
2016,07,15,05,08,16.10
2016,07,15,05,09,16.10
2016,07,15,05,10,16.10
2016,07,15,05,11,16.10
2016,07,15,05,12,16.00
2016,07,15,05,13,16.00
2016,07,15,05,14,16.00
2016,07,15,05,15,16.00
2016,07,15,05,16,15.90
2016,07,15,05,17,15.80
2016,07,15,05,18,15.70
2016,07,15,05,19,15.60
2016,07,15,05,20,15.60
2016,07,15,05,21,15.50
2016,07,15,05,22,15.50
2016,07,15,05,23,15.60
2016,07,15,05,24,15.60
2016,07,15,05,25,15.60
2016,07,15,05,26,15.60
2016,07,15,05,27,15.60
2016,07,15,05,28,15.60
2016,07,15,05,29,15.60
2016,07,15,05,30,15.60
2016,07,15,05,31,15.60
2016,07,15,05,32,15.60
2016,07,15,05,33,15.60
2016,07,15,05,34,15.60
2016,07,15,05,35,15.60
2016,07,15,05,36,15.60
2016,07,15,05,37,15.60
2016,07,15,05,38,15.60
2016,07,15,05,39,15.70
2016,07,15,05,40,15.70
2016,07,15,05,41,15.70
2016,07,15,05,42,15.70
2016,07,15,05,43,15.70
2016,07,15,05,44,15.70
2016,07,15,05,45,15.70
2016,07,15,05,46,15.80
2016,07,15,05,47,15.80
2016,07,15,05,48,15.90
2016,07,15,05,49,15.90
2016,07,15,05,50,15.90
2016,07,15,05,51,16.00
2016,07,15,05,52,16.00
2016,07,15,05,53,16.00
2016,07,15,05,54,16.00
2016,07,15,05,55,16.00
2016,07,15,05,56,15.90
2016,07,15,05,57,15.90
2016,07,15,05,58,15.90
2016,07,15,05,59,15.90
2016,07,15,06,00,16.00
2016,07,15,06,01,16.00
2016,07,15,06,02,16.00
2016,07,15,06,03,15.90
2016,07,15,06,04,15.90
2016,07,15,06,05,15.90
2016,07,15,06,06,15.80
2016,07,15,06,07,15.80
2016,07,15,06,08,15.80
2016,07,15,06,09,15.80
2016,07,15,06,10,15.80
2016,07,15,06,11,15.80
2016,07,15,06,12,15.80
2016,07,15,06,13,15.90
2016,07,15,06,14,15.90
2016,07,15,06,15,15.90
2016,07,15,06,16,15.90
2016,07,15,06,17,15.90
2016,07,15,06,18,15.80
2016,07,15,06,19,15.80
2016,07,15,06,20,15.80
2016,07,15,06,21,15.80
2016,07,15,06,22,15.80
2016,07,15,06,23,15.80
2016,07,15,06,24,15.80
2016,07,15,06,25,15.80
2016,07,15,06,26,15.90
2016,07,15,06,27,15.90
2016,07,15,06,28,15.90
2016,07,15,06,29,15.90
2016,07,15,06,30,15.90
2016,07,15,06,31,15.90
2016,07,15,06,32,15.90
2016,07,15,06,33,15.90
2016,07,15,06,34,15.90
2016,07,15,06,35,15.90
2016,07,15,06,36,16.00
2016,07,15,06,37,15.90
2016,07,15,06,38,15.90
2016,07,15,06,39,15.90
2016,07,15,06,40,15.90
2016,07,15,06,41,15.80
2016,07,15,06,42,15.80
2016,07,15,06,43,15.80
2016,07,15,06,44,15.80
2016,07,15,06,45,15.80
2016,07,15,06,46,15.70
2016,07,15,06,47,15.70
2016,07,15,06,48,15.70
2016,07,15,06,49,15.80
2016,07,15,06,50,15.80
2016,07,15,06,51,15.80
2016,07,15,06,52,15.80
2016,07,15,06,53,15.80
2016,07,15,06,54,15.70
2016,07,15,06,55,15.70
2016,07,15,06,56,15.60
2016,07,15,06,57,15.50
2016,07,15,06,58,15.50
2016,07,15,06,59,15.40
2016,07,15,07,00,15.30
2016,07,15,07,01,15.30
2016,07,15,07,02,15.20
2016,07,15,07,03,15.20
2016,07,15,07,04,15.20
2016,07,15,07,05,15.10
2016,07,15,07,06,15.20
2016,07,15,07,07,15.20
2016,07,15,07,08,15.20
2016,07,15,07,09,15.20
2016,07,15,07,10,15.20
2016,07,15,07,11,15.20
2016,07,15,07,12,15.20
2016,07,15,07,13,15.30
2016,07,15,07,14,15.30
2016,07,15,07,15,15.30
2016,07,15,07,16,15.30
2016,07,15,07,17,15.30
2016,07,15,07,18,15.30
2016,07,15,07,19,15.30
2016,07,15,07,20,15.30
2016,07,15,07,21,15.30
2016,07,15,07,22,15.30
2016,07,15,07,23,15.20
2016,07,15,07,24,15.10
2016,07,15,07,25,15.10
2016,07,15,07,26,15.00
2016,07,15,07,27,15.00
2016,07,15,07,28,14.90
2016,07,15,07,29,14.90
2016,07,15,07,30,14.80
2016,07,15,07,31,14.80
2016,07,15,07,32,14.90
2016,07,15,07,33,14.90
2016,07,15,07,34,14.90
2016,07,15,07,35,15.00
2016,07,15,07,36,15.00
2016,07,15,07,37,15.00
2016,07,15,07,38,15.10
2016,07,15,07,39,15.10
2016,07,15,07,40,15.10
2016,07,15,07,41,15.20
2016,07,15,07,42,15.30
2016,07,15,07,43,15.30
2016,07,15,07,44,15.40
2016,07,15,07,45,15.40
2016,07,15,07,46,15.50
2016,07,15,07,47,15.50
2016,07,15,07,48,15.60
2016,07,15,07,49,15.60
2016,07,15,07,50,15.60
2016,07,15,07,51,15.60
2016,07,15,07,52,15.70
2016,07,15,07,53,15.60
2016,07,15,07,54,15.60
2016,07,15,07,55,15.60
2016,07,15,07,56,15.60
2016,07,15,07,57,15.60
2016,07,15,07,58,15.50
2016,07,15,07,59,15.50
2016,07,15,08,00,15.50
2016,07,15,08,01,15.50
2016,07,15,08,02,15.60
2016,07,15,08,03,15.60
2016,07,15,08,04,15.70
2016,07,15,08,05,15.70
2016,07,15,08,06,15.70
2016,07,15,08,07,15.80
2016,07,15,08,08,15.80
2016,07,15,08,09,15.80
2016,07,15,08,10,15.90
2016,07,15,08,11,16.00
2016,07,15,08,12,16.10
2016,07,15,08,13,16.10
2016,07,15,08,14,16.20
2016,07,15,08,15,16.20
2016,07,15,08,16,16.20
2016,07,15,08,17,16.10
2016,07,15,08,18,16.10
2016,07,15,08,19,16.10
2016,07,15,08,20,16.10
2016,07,15,08,21,16.10
2016,07,15,08,22,16.10
2016,07,15,08,23,16.00
2016,07,15,08,24,16.00
2016,07,15,08,25,15.90
2016,07,15,08,26,15.90
2016,07,15,08,27,15.90
2016,07,15,08,28,15.80
2016,07,15,08,29,15.80
2016,07,15,08,30,15.90
2016,07,15,08,31,16.00
2016,07,15,08,32,16.10
2016,07,15,08,33,16.20
2016,07,15,08,34,16.20
2016,07,15,08,35,16.30
2016,07,15,08,36,16.30
2016,07,15,08,37,16.30
2016,07,15,08,38,16.40
2016,07,15,08,39,16.40
2016,07,15,08,40,16.40
2016,07,15,08,41,16.30
2016,07,15,08,42,16.30
2016,07,15,08,43,16.30
2016,07,15,08,44,16.30
2016,07,15,08,45,16.20
2016,07,15,08,46,16.20
2016,07,15,08,47,16.20
2016,07,15,08,48,16.20
2016,07,15,08,49,16.20
2016,07,15,08,50,16.20
2016,07,15,08,51,16.20
2016,07,15,08,52,16.20
2016,07,15,08,53,16.20
2016,07,15,08,54,16.20
2016,07,15,08,55,16.20
2016,07,15,08,56,16.20
2016,07,15,08,57,16.20
2016,07,15,08,58,16.30
2016,07,15,08,59,16.40
2016,07,15,09,00,16.50
2016,07,15,09,01,16.60
2016,07,15,09,02,16.60
2016,07,15,09,03,16.70
2016,07,15,09,04,16.70
2016,07,15,09,05,16.80
2016,07,15,09,06,16.80
2016,07,15,09,07,16.90
2016,07,15,09,08,16.90
2016,07,15,09,09,16.90
2016,07,15,09,10,16.90
2016,07,15,09,11,16.90
2016,07,15,09,12,17.00
2016,07,15,09,13,17.00
2016,07,15,09,14,17.10
2016,07,15,09,15,17.10
2016,07,15,09,16,17.10
2016,07,15,09,17,17.10
2016,07,15,09,18,17.00
2016,07,15,09,19,17.00
2016,07,15,09,20,17.00
2016,07,15,09,21,17.00
2016,07,15,09,22,17.00
2016,07,15,09,23,17.10
2016,07,15,09,24,17.20
2016,07,15,09,25,17.20
2016,07,15,09,26,17.20
2016,07,15,09,27,17.20
2016,07,15,09,28,17.20
2016,07,15,09,29,17.20
2016,07,15,09,30,17.30
2016,07,15,09,31,17.40
2016,07,15,09,32,17.40
2016,07,15,09,33,17.50
2016,07,15,09,34,17.60
2016,07,15,09,35,17.60
2016,07,15,09,36,17.60
2016,07,15,09,37,17.60
2016,07,15,09,38,17.50
2016,07,15,09,39,17.50
2016,07,15,09,40,17.50
2016,07,15,09,41,17.40
2016,07,15,09,42,17.50
2016,07,15,09,43,17.60
2016,07,15,09,44,17.70
2016,07,15,09,45,17.80
2016,07,15,09,46,17.80
2016,07,15,09,47,17.90
2016,07,15,09,48,18.00
2016,07,15,09,49,18.10
2016,07,15,09,50,18.20
2016,07,15,09,51,18.20
2016,07,15,09,52,18.20
2016,07,15,09,53,18.20
2016,07,15,09,54,18.30
2016,07,15,09,55,18.40
2016,07,15,09,56,18.50
2016,07,15,09,57,18.60
2016,07,15,09,58,18.60
2016,07,15,09,59,18.70
2016,07,15,10,00,18.70
2016,07,15,10,01,18.80
2016,07,15,10,02,18.80
2016,07,15,10,03,18.90
2016,07,15,10,04,18.90
2016,07,15,10,05,18.90
2016,07,15,10,06,18.90
2016,07,15,10,07,18.90
2016,07,15,10,08,18.90
2016,07,15,10,09,19.00
2016,07,15,10,10,19.00
2016,07,15,10,11,19.00
2016,07,15,10,12,19.10
2016,07,15,10,13,19.20
2016,07,15,10,14,19.20
2016,07,15,10,15,19.20
2016,07,15,10,16,19.30
2016,07,15,10,17,19.30
2016,07,15,10,18,19.40
2016,07,15,10,19,19.40
2016,07,15,10,20,19.40
2016,07,15,10,21,19.40
2016,07,15,10,22,19.50
2016,07,15,10,23,19.50
2016,07,15,10,24,19.60
2016,07,15,10,25,19.60
2016,07,15,10,26,19.70
2016,07,15,10,27,19.80
2016,07,15,10,28,19.80
2016,07,15,10,29,19.90
2016,07,15,10,30,19.90
2016,07,15,10,31,19.90
2016,07,15,10,32,19.90
2016,07,15,10,33,19.90
2016,07,15,10,34,19.90
2016,07,15,10,35,19.90
2016,07,15,10,36,19.90
2016,07,15,10,37,19.90
2016,07,15,10,38,19.90
2016,07,15,10,39,19.90
2016,07,15,10,40,19.90
2016,07,15,10,41,19.90
2016,07,15,10,42,19.90
2016,07,15,10,43,19.90
2016,07,15,10,44,19.90
2016,07,15,10,45,19.90
2016,07,15,10,46,20.00
2016,07,15,10,47,20.00
2016,07,15,10,48,20.10
2016,07,15,10,49,20.10
2016,07,15,10,50,20.10
2016,07,15,10,51,20.20
2016,07,15,10,52,20.30
2016,07,15,10,53,20.40
2016,07,15,10,54,20.50
2016,07,15,10,55,20.50
2016,07,15,10,56,20.50
2016,07,15,10,57,20.50
2016,07,15,10,58,20.60
2016,07,15,10,59,20.70
2016,07,15,11,00,20.70
2016,07,15,11,01,20.80
2016,07,15,11,02,20.80
2016,07,15,11,03,20.80
2016,07,15,11,04,20.90
2016,07,15,11,05,20.90
2016,07,15,11,06,21.00
2016,07,15,11,07,21.00
2016,07,15,11,08,21.00
2016,07,15,11,09,21.00
2016,07,15,11,10,21.00
2016,07,15,11,11,21.00
2016,07,15,11,12,21.00
2016,07,15,11,13,21.00
2016,07,15,11,14,21.10
2016,07,15,11,15,21.10
2016,07,15,11,16,21.20
2016,07,15,11,17,21.30
2016,07,15,11,18,21.30
2016,07,15,11,19,21.30
2016,07,15,11,20,21.30
2016,07,15,11,21,21.30
2016,07,15,11,22,21.40
2016,07,15,11,23,21.40
2016,07,15,11,24,21.50
2016,07,15,11,25,21.50
2016,07,15,11,26,21.50
2016,07,15,11,27,21.50
2016,07,15,11,28,21.60
2016,07,15,11,29,21.60
2016,07,15,11,30,21.60
2016,07,15,11,31,21.60
2016,07,15,11,32,21.50
2016,07,15,11,33,21.50
2016,07,15,11,34,21.40
2016,07,15,11,35,21.40
2016,07,15,11,36,21.50
2016,07,15,11,37,21.50
2016,07,15,11,38,21.60
2016,07,15,11,39,21.80
2016,07,15,11,40,21.80
2016,07,15,11,41,21.80
2016,07,15,11,42,21.80
2016,07,15,11,43,21.80
2016,07,15,11,44,21.80
2016,07,15,11,45,21.90
2016,07,15,11,46,21.90
2016,07,15,11,47,21.90
2016,07,15,11,48,22.00
2016,07,15,11,49,22.00
2016,07,15,11,50,22.10
2016,07,15,11,51,22.10
2016,07,15,11,52,22.20
2016,07,15,11,53,22.20
2016,07,15,11,54,22.20
2016,07,15,11,55,22.20
2016,07,15,11,56,22.30
2016,07,15,11,57,22.30
2016,07,15,11,58,22.30
2016,07,15,11,59,22.30
2016,07,15,12,00,22.40
2016,07,15,12,01,22.40
2016,07,15,12,02,22.40
2016,07,15,12,03,22.40
2016,07,15,12,04,22.40
2016,07,15,12,05,22.30
2016,07,15,12,06,22.30
2016,07,15,12,07,22.40
2016,07,15,12,08,22.50
2016,07,15,12,09,22.60
2016,07,15,12,10,22.60
2016,07,15,12,11,22.60
2016,07,15,12,12,22.60
2016,07,15,12,13,22.60
2016,07,15,12,14,22.60
2016,07,15,12,15,22.70
2016,07,15,12,16,22.80
2016,07,15,12,17,22.90
2016,07,15,12,18,23.00
2016,07,15,12,19,23.00
2016,07,15,12,20,22.90
2016,07,15,12,21,22.90
2016,07,15,12,22,22.90
2016,07,15,12,23,22.90
2016,07,15,12,24,22.90
2016,07,15,12,25,23.00
2016,07,15,12,26,23.00
2016,07,15,12,27,23.10
2016,07,15,12,28,23.20
2016,07,15,12,29,23.30
2016,07,15,12,30,23.30
2016,07,15,12,31,23.30
2016,07,15,12,32,23.30
2016,07,15,12,33,23.30
2016,07,15,12,34,23.30
2016,07,15,12,35,23.40
2016,07,15,12,36,23.40
2016,07,15,12,37,23.50
2016,07,15,12,38,23.60
2016,07,15,12,39,23.70
2016,07,15,12,40,23.70
2016,07,15,12,41,23.80
2016,07,15,12,42,23.80
2016,07,15,12,43,23.90
2016,07,15,12,44,24.00
2016,07,15,12,45,24.10
2016,07,15,12,46,24.10
2016,07,15,12,47,24.10
2016,07,15,12,48,24.00
2016,07,15,12,49,24.00
2016,07,15,12,50,24.00
2016,07,15,12,51,23.90
2016,07,15,12,52,23.90
2016,07,15,12,53,23.90
2016,07,15,12,54,23.90
2016,07,15,12,55,23.90
2016,07,15,12,56,23.90
2016,07,15,12,57,23.90
2016,07,15,12,58,23.90
2016,07,15,12,59,23.90
2016,07,15,13,00,23.90
2016,07,15,13,01,23.90
2016,07,15,13,02,23.80
2016,07,15,13,03,23.80
2016,07,15,13,04,23.80
2016,07,15,13,05,23.80
2016,07,15,13,06,23.80
2016,07,15,13,07,23.80
2016,07,15,13,08,23.70
2016,07,15,13,09,23.60
2016,07,15,13,10,23.50
2016,07,15,13,11,23.40
2016,07,15,13,12,23.30
2016,07,15,13,13,23.20
2016,07,15,13,14,23.20
2016,07,15,13,15,23.10
2016,07,15,13,16,23.20
2016,07,15,13,17,23.20
2016,07,15,13,18,23.20
2016,07,15,13,19,23.30
2016,07,15,13,20,23.30
2016,07,15,13,21,23.40
2016,07,15,13,22,23.40
2016,07,15,13,23,23.40
2016,07,15,13,24,23.50
2016,07,15,13,25,23.50
2016,07,15,13,26,23.60
2016,07,15,13,27,23.50
2016,07,15,13,28,23.50
2016,07,15,13,29,23.40
2016,07,15,13,30,23.30
2016,07,15,13,31,23.30
2016,07,15,13,32,23.20
2016,07,15,13,33,23.20
2016,07,15,13,34,23.20
2016,07,15,13,35,23.30
2016,07,15,13,36,23.30
2016,07,15,13,37,23.30
2016,07,15,13,38,23.30
2016,07,15,13,39,23.30
2016,07,15,13,40,23.30
2016,07,15,13,41,23.20
2016,07,15,13,42,23.10
2016,07,15,13,43,23.10
2016,07,15,13,44,23.10
2016,07,15,13,45,23.10
2016,07,15,13,46,23.10
2016,07,15,13,47,23.10
2016,07,15,13,48,23.00
2016,07,15,13,49,23.00
2016,07,15,13,50,22.90
2016,07,15,13,51,22.80
2016,07,15,13,52,22.80
2016,07,15,13,53,22.80
2016,07,15,13,54,22.90
2016,07,15,13,55,23.00
2016,07,15,13,56,23.10
2016,07,15,13,57,23.20
2016,07,15,13,58,23.20
2016,07,15,13,59,23.20
2016,07,15,14,00,23.20
2016,07,15,14,01,23.20
2016,07,15,14,02,23.20
2016,07,15,14,03,23.20
2016,07,15,14,04,23.20
2016,07,15,14,05,23.30
2016,07,15,14,06,23.40
2016,07,15,14,07,23.40
2016,07,15,14,08,23.30
2016,07,15,14,09,23.20
2016,07,15,14,10,23.20
2016,07,15,14,11,23.10
2016,07,15,14,12,23.00
2016,07,15,14,13,22.90
2016,07,15,14,14,22.90
2016,07,15,14,15,22.90
2016,07,15,14,16,23.00
2016,07,15,14,17,23.10
2016,07,15,14,18,23.20
2016,07,15,14,19,23.20
2016,07,15,14,20,23.10
2016,07,15,14,21,23.10
2016,07,15,14,22,23.10
2016,07,15,14,23,23.00
2016,07,15,14,24,23.00
2016,07,15,14,25,23.00
2016,07,15,14,26,22.90
2016,07,15,14,27,22.80
2016,07,15,14,28,22.70
2016,07,15,14,29,22.60
2016,07,15,14,30,22.40
2016,07,15,14,31,22.30
2016,07,15,14,32,22.30
2016,07,15,14,33,22.30
2016,07,15,14,34,22.30
2016,07,15,14,35,22.30
2016,07,15,14,36,22.30
2016,07,15,14,37,22.40
2016,07,15,14,38,22.40
2016,07,15,14,39,22.50
2016,07,15,14,40,22.50
2016,07,15,14,41,22.50
2016,07,15,14,42,22.60
2016,07,15,14,43,22.60
2016,07,15,14,44,22.70
2016,07,15,14,45,22.80
2016,07,15,14,46,22.80
2016,07,15,14,47,22.90
2016,07,15,14,48,23.00
2016,07,15,14,49,23.00
2016,07,15,14,50,23.10
2016,07,15,14,51,23.20
2016,07,15,14,52,23.10
2016,07,15,14,53,23.00
2016,07,15,14,54,23.00
2016,07,15,14,55,23.00
2016,07,15,14,56,23.20
2016,07,15,14,57,23.30
2016,07,15,14,58,23.30
2016,07,15,14,59,23.20
2016,07,15,15,00,23.10
2016,07,15,15,01,23.10
2016,07,15,15,02,23.10
2016,07,15,15,03,23.10
2016,07,15,15,04,23.10
2016,07,15,15,05,23.20
2016,07,15,15,06,23.30
2016,07,15,15,07,23.30
2016,07,15,15,08,23.30
2016,07,15,15,09,23.30
2016,07,15,15,10,23.40
2016,07,15,15,11,23.40
2016,07,15,15,12,23.40
2016,07,15,15,13,23.40
2016,07,15,15,14,23.40
2016,07,15,15,15,23.40
2016,07,15,15,16,23.30
2016,07,15,15,17,23.30
2016,07,15,15,18,23.30
2016,07,15,15,19,23.30
2016,07,15,15,20,23.10
2016,07,15,15,21,23.00
2016,07,15,15,22,22.90
2016,07,15,15,23,22.80
2016,07,15,15,24,22.80
2016,07,15,15,25,22.80
2016,07,15,15,26,22.80
2016,07,15,15,27,22.80
2016,07,15,15,28,22.80
2016,07,15,15,29,22.90
2016,07,15,15,30,22.90
2016,07,15,15,31,22.80
2016,07,15,15,32,22.70
2016,07,15,15,33,22.70
2016,07,15,15,34,22.70
2016,07,15,15,35,22.70
2016,07,15,15,36,22.60
2016,07,15,15,37,22.60
2016,07,15,15,38,22.60
2016,07,15,15,39,22.60
2016,07,15,15,40,22.60
2016,07,15,15,41,22.60
2016,07,15,15,42,22.60
2016,07,15,15,43,22.60
2016,07,15,15,44,22.50
2016,07,15,15,45,22.50
2016,07,15,15,46,22.50
2016,07,15,15,47,22.40
2016,07,15,15,48,22.50
2016,07,15,15,49,22.60
2016,07,15,15,50,22.60
2016,07,15,15,51,22.60
2016,07,15,15,52,22.70
2016,07,15,15,53,22.80
2016,07,15,15,54,22.80
2016,07,15,15,55,22.80
2016,07,15,15,56,22.80
2016,07,15,15,57,22.80
2016,07,15,15,58,22.80
2016,07,15,15,59,22.80
2016,07,15,16,00,22.80
2016,07,15,16,01,22.80
2016,07,15,16,02,22.80
2016,07,15,16,03,22.80
2016,07,15,16,04,22.80
2016,07,15,16,05,22.80
2016,07,15,16,06,22.80
2016,07,15,16,07,22.80
2016,07,15,16,08,22.70
2016,07,15,16,09,22.60
2016,07,15,16,10,22.60
2016,07,15,16,11,22.60
2016,07,15,16,12,22.50
2016,07,15,16,13,22.50
2016,07,15,16,14,22.50
2016,07,15,16,15,22.50
2016,07,15,16,16,22.60
2016,07,15,16,17,22.60
2016,07,15,16,18,22.60
2016,07,15,16,19,22.60
2016,07,15,16,20,22.70
2016,07,15,16,21,22.80
2016,07,15,16,22,22.80
2016,07,15,16,23,22.90
2016,07,15,16,24,22.90
2016,07,15,16,25,22.90
2016,07,15,16,26,22.90
2016,07,15,16,27,22.80
2016,07,15,16,28,22.90
2016,07,15,16,29,22.90
2016,07,15,16,30,23.00
2016,07,15,16,31,23.00
2016,07,15,16,32,23.00
2016,07,15,16,33,23.00
2016,07,15,16,34,23.00
2016,07,15,16,35,22.90
2016,07,15,16,36,22.90
2016,07,15,16,37,22.90
2016,07,15,16,38,22.90
2016,07,15,16,39,22.90
2016,07,15,16,40,22.90
2016,07,15,16,41,22.90
2016,07,15,16,42,22.80
2016,07,15,16,43,22.80
2016,07,15,16,44,22.70
2016,07,15,16,45,22.70
2016,07,15,16,46,22.70
2016,07,15,16,47,22.70
2016,07,15,16,48,22.70
2016,07,15,16,49,22.70
2016,07,15,16,50,22.70
2016,07,15,16,51,22.70
2016,07,15,16,52,22.70
2016,07,15,16,53,22.70
2016,07,15,16,54,22.70
2016,07,15,16,55,22.70
2016,07,15,16,56,22.60
2016,07,15,16,57,22.60
2016,07,15,16,58,22.50
2016,07,15,16,59,22.50
2016,07,15,17,00,22.40
2016,07,15,17,01,22.40
2016,07,15,17,02,22.40
2016,07,15,17,03,22.40
2016,07,15,17,04,22.40
2016,07,15,17,05,22.50
2016,07,15,17,06,22.50
2016,07,15,17,07,22.50
2016,07,15,17,08,22.50
2016,07,15,17,09,22.40
2016,07,15,17,10,22.40
2016,07,15,17,11,22.30
2016,07,15,17,12,22.30
2016,07,15,17,13,22.30
2016,07,15,17,14,22.30
2016,07,15,17,15,22.20
2016,07,15,17,16,22.30
2016,07,15,17,17,22.30
2016,07,15,17,18,22.30
2016,07,15,17,19,22.30